Time,TemperatureF,DewpointF,PressureIn,WindDirection,WindDirectionDegrees,WindSpeedMPH,WindSpeedGustMPH,Humidity,HourlyPrecipIn,Conditions,Clouds,dailyrainin,SoftwareType,DateUTC
2013-08-28 00:04:00,53.5,47.5,29.91,South,190,0.0,0.0,80,0.00,,,0.00,Wunderground v.1.15,2013-08-28 06:04:00,
2013-08-28 00:09:00,53.5,47.5,29.91,South,190,0.0,0.0,80,0.00,,,0.00,Wunderground v.1.15,2013-08-28 06:09:00,
2013-08-28 00:15:00,53.5,47.8,29.91,South,190,0.0,0.0,81,0.00,,,0.00,Wunderground v.1.15,2013-08-28 06:15:00,
2013-08-28 00:24:00,53.6,48.2,29.91,South,190,0.0,0.0,82,0.00,,,0.00,Wunderground v.1.15,2013-08-28 06:24:00,
2013-08-28 00:34:00,53.6,48.2,29.92,South,190,0.0,0.0,82,0.00,,,0.00,Wunderground v.1.15,2013-08-28 06:34:00,
2013-08-28 00:44:00,53.7,48.7,29.91,South,190,0.0,0.0,83,0.00,,,0.00,Wunderground v.1.15,2013-08-28 06:44:00,
2013-08-28 00:49:00,53.9,48.5,29.92,South,190,0.0,0.0,82,0.00,,,0.00,Wunderground v.1.15,2013-08-28 06:49:00,
2013-08-28 00:54:00,53.9,48.5,29.92,South,190,0.0,0.0,82,0.00,,,0.00,Wunderground v.1.15,2013-08-28 06:54:00,
2013-08-28 01:04:00,53.8,48.1,29.92,South,190,0.0,0.0,81,0.00,,,0.00,Wunderground v.1.15,2013-08-28 07:04:00,
2013-08-28 01:09:00,53.8,47.8,29.92,South,190,0.0,0.0,80,0.00,,,0.00,Wunderground v.1.15,2013-08-28 07:09:00,
2013-08-28 01:15:00,53.8,48.1,29.92,South,190,0.0,0.0,81,0.00,,,0.00,Wunderground v.1.15,2013-08-28 07:15:00,
2013-08-28 01:24:00,53.7,48.0,29.92,South,190,0.0,0.0,81,0.00,,,0.00,Wunderground v.1.15,2013-08-28 07:24:00,
2013-08-28 01:29:00,53.7,48.0,29.92,South,190,0.0,0.0,81,0.00,,,0.00,Wunderground v.1.15,2013-08-28 07:29:00,
2013-08-28 01:34:00,53.7,48.0,29.92,South,190,0.0,0.0,81,0.00,,,0.00,Wunderground v.1.15,2013-08-28 07:34:00,
2013-08-28 01:39:00,53.6,47.9,29.92,South,190,0.0,0.0,81,0.00,,,0.00,Wunderground v.1.15,2013-08-28 07:39:00,
2013-08-28 01:44:00,53.5,47.8,29.92,South,190,0.0,0.0,81,0.00,,,0.00,Wunderground v.1.15,2013-08-28 07:44:00,
2013-08-28 01:49:00,53.4,48.0,29.91,South,190,0.0,0.0,82,0.00,,,0.00,Wunderground v.1.15,2013-08-28 07:49:00,
2013-08-28 01:54:00,53.3,47.9,29.92,South,190,0.0,0.0,82,0.00,,,0.00,Wunderground v.1.15,2013-08-28 07:54:00,
2013-08-28 01:59:00,53.2,47.8,29.91,South,190,0.0,0.0,82,0.00,,,0.00,Wunderground v.1.15,2013-08-28 07:59:00,
2013-08-28 02:09:00,53.0,47.7,29.91,South,190,0.0,0.0,82,0.00,,,0.00,Wunderground v.1.15,2013-08-28 08:09:00,
2013-08-28 02:15:00,52.8,47.1,29.91,South,190,0.0,0.0,81,0.00,,,0.00,Wunderground v.1.15,2013-08-28 08:15:00,
2013-08-28 02:24:00,52.5,47.2,29.91,South,190,0.0,0.0,82,0.00,,,0.00,Wunderground v.1.15,2013-08-28 08:24:00,
2013-08-28 02:34:00,52.3,47.3,29.91,South,190,0.0,0.0,83,0.00,,,0.00,Wunderground v.1.15,2013-08-28 08:34:00,
2013-08-28 02:39:00,52.1,47.1,29.91,South,190,0.0,0.0,83,0.00,,,0.00,Wunderground v.1.15,2013-08-28 08:39:00,
2013-08-28 02:49:00,51.9,46.9,29.91,South,190,0.0,0.0,83,0.00,,,0.00,Wunderground v.1.15,2013-08-28 08:49:00,
2013-08-28 02:54:00,51.7,46.4,29.91,South,190,0.0,0.0,82,0.00,,,0.00,Wunderground v.1.15,2013-08-28 08:54:00,
2013-08-28 02:59:00,51.6,46.9,29.91,South,190,0.0,0.0,84,0.00,,,0.00,Wunderground v.1.15,2013-08-28 08:59:00,
2013-08-28 03:09:00,51.3,46.6,29.91,South,190,0.0,0.0,84,0.00,,,0.00,Wunderground v.1.15,2013-08-28 09:09:00,
2013-08-28 03:14:00,51.2,46.8,29.91,South,190,0.0,0.0,85,0.00,,,0.00,Wunderground v.1.15,2013-08-28 09:14:00,
2013-08-28 03:24:00,51.0,46.6,29.91,South,190,0.0,0.0,85,0.00,,,0.00,Wunderground v.1.15,2013-08-28 09:24:00,
2013-08-28 03:34:00,50.8,46.8,29.91,South,190,0.0,0.0,86,0.00,,,0.00,Wunderground v.1.15,2013-08-28 09:34:00,
2013-08-28 03:39:00,50.7,46.7,29.91,South,190,0.0,0.0,86,0.00,,,0.00,Wunderground v.1.15,2013-08-28 09:39:00,
2013-08-28 03:44:00,50.7,46.7,29.91,South,190,0.0,0.0,86,0.00,,,0.00,Wunderground v.1.15,2013-08-28 09:44:00,
2013-08-28 03:54:00,50.8,46.8,29.91,South,190,0.0,0.0,86,0.00,,,0.00,Wunderground v.1.15,2013-08-28 09:54:00,
2013-08-28 04:04:00,51.0,47.0,29.91,South,190,0.0,0.0,86,0.00,,,0.00,Wunderground v.1.15,2013-08-28 10:04:00,
2013-08-28 04:09:00,51.0,47.0,29.91,South,190,0.0,0.0,86,0.00,,,0.00,Wunderground v.1.15,2013-08-28 10:09:00,
2013-08-28 04:14:00,51.0,47.0,29.91,South,190,0.0,0.0,86,0.00,,,0.00,Wunderground v.1.15,2013-08-28 10:14:00,
2013-08-28 04:24:00,51.2,47.2,29.91,South,190,0.0,0.0,86,0.00,,,0.00,Wunderground v.1.15,2013-08-28 10:24:00,
2013-08-28 04:29:00,51.1,47.1,29.91,South,190,0.0,0.0,86,0.00,,,0.00,Wunderground v.1.15,2013-08-28 10:29:00,
2013-08-28 04:39:00,50.9,46.6,29.91,South,190,0.0,0.0,85,0.00,,,0.00,Wunderground v.1.15,2013-08-28 10:39:00,
2013-08-28 04:44:00,50.8,46.8,29.91,South,190,0.0,0.0,86,0.00,,,0.00,Wunderground v.1.15,2013-08-28 10:44:00,
2013-08-28 04:49:00,50.7,46.7,29.91,South,190,0.0,0.0,86,0.00,,,0.00,Wunderground v.1.15,2013-08-28 10:49:00,
2013-08-28 04:54:00,50.5,46.5,29.91,South,190,0.0,0.0,86,0.00,,,0.00,Wunderground v.1.15,2013-08-28 10:54:00,
2013-08-28 04:59:00,50.4,46.7,29.91,South,190,0.0,0.0,87,0.00,,,0.00,Wunderground v.1.15,2013-08-28 10:59:00,
2013-08-28 05:09:00,50.0,46.3,29.91,South,190,0.0,0.0,87,0.00,,,0.00,Wunderground v.1.15,2013-08-28 11:09:00,
2013-08-28 05:14:00,49.9,46.2,29.91,South,190,0.0,0.0,87,0.00,,,0.00,Wunderground v.1.15,2013-08-28 11:14:00,
2013-08-28 05:24:00,49.7,46.3,29.91,South,190,0.0,0.0,88,0.00,,,0.00,Wunderground v.1.15,2013-08-28 11:24:00,
2013-08-28 05:29:00,49.6,46.2,29.91,South,190,0.0,0.0,88,0.00,,,0.00,Wunderground v.1.15,2013-08-28 11:29:00,
2013-08-28 05:39:00,49.3,45.9,29.92,South,190,0.0,0.0,88,0.00,,,0.00,Wunderground v.1.15,2013-08-28 11:39:00,
2013-08-28 05:44:00,49.2,45.8,29.92,South,190,0.0,0.0,88,0.00,,,0.00,Wunderground v.1.15,2013-08-28 11:44:00,
2013-08-28 05:49:00,49.1,45.7,29.92,South,190,0.0,0.0,88,0.00,,,0.00,Wunderground v.1.15,2013-08-28 11:49:00,
2013-08-28 05:54:00,49.0,45.6,29.92,South,190,0.0,0.0,88,0.00,,,0.00,Wunderground v.1.15,2013-08-28 11:54:00,
2013-08-28 05:59:00,48.9,45.5,29.92,South,190,0.0,0.0,88,0.00,,,0.00,Wunderground v.1.15,2013-08-28 11:59:00,
2013-08-28 06:09:00,48.7,45.3,29.92,South,190,0.0,0.0,88,0.00,,,0.00,Wunderground v.1.15,2013-08-28 12:09:00,
2013-08-28 06:14:00,48.5,45.4,29.92,South,190,0.0,0.0,89,0.00,,,0.00,Wunderground v.1.15,2013-08-28 12:14:00,
2013-08-28 06:24:00,48.4,45.3,29.93,South,190,0.0,0.0,89,0.00,,,0.00,Wunderground v.1.15,2013-08-28 12:24:00,
2013-08-28 06:29:00,48.2,45.1,29.93,South,190,0.0,0.0,89,0.00,,,0.00,Wunderground v.1.15,2013-08-28 12:29:00,
2013-08-28 06:34:00,48.1,45.3,29.93,South,190,0.0,0.0,90,0.00,,,0.00,Wunderground v.1.15,2013-08-28 12:34:00,
2013-08-28 06:44:00,48.0,45.2,29.94,South,190,0.0,0.0,90,0.00,,,0.00,Wunderground v.1.15,2013-08-28 12:44:00,
2013-08-28 06:49:00,48.0,45.2,29.94,South,190,0.0,0.0,90,0.00,,,0.00,Wunderground v.1.15,2013-08-28 12:49:00,
2013-08-28 06:54:00,47.9,45.1,29.94,South,190,0.0,0.0,90,0.00,,,0.00,Wunderground v.1.15,2013-08-28 12:54:00,
2013-08-28 07:04:00,47.9,45.1,29.95,South,190,0.0,0.0,90,0.00,,,0.00,Wunderground v.1.15,2013-08-28 13:04:00,
2013-08-28 07:14:00,47.8,45.0,29.95,South,190,0.0,0.0,90,0.00,,,0.00,Wunderground v.1.15,2013-08-28 13:14:00,
2013-08-28 07:24:00,47.7,44.9,29.96,South,190,0.0,0.0,90,0.00,,,0.00,Wunderground v.1.15,2013-08-28 13:24:00,
2013-08-28 07:29:00,47.8,45.0,29.96,South,190,0.0,0.0,90,0.00,,,0.00,Wunderground v.1.15,2013-08-28 13:29:00,
2013-08-28 07:34:00,47.8,45.3,29.96,South,190,0.0,0.0,91,0.00,,,0.00,Wunderground v.1.15,2013-08-28 13:34:00,
2013-08-28 07:39:00,47.9,45.4,29.96,South,190,0.0,0.0,91,0.00,,,0.00,Wunderground v.1.15,2013-08-28 13:39:00,
2013-08-28 07:49:00,48.2,45.7,29.96,South,190,0.0,0.0,91,0.00,,,0.00,Wunderground v.1.15,2013-08-28 13:49:00,
2013-08-28 07:54:00,48.3,45.8,29.96,South,190,0.0,0.0,91,0.00,,,0.00,Wunderground v.1.15,2013-08-28 13:54:00,
2013-08-28 07:59:00,48.5,46.3,29.96,South,190,0.0,0.0,92,0.00,,,0.00,Wunderground v.1.15,2013-08-28 13:59:00,
2013-08-28 08:09:00,49.2,47.0,29.96,South,190,0.0,0.0,92,0.00,,,0.00,Wunderground v.1.15,2013-08-28 14:09:00,
2013-08-28 08:14:00,49.6,47.4,29.96,South,190,0.0,0.0,92,0.00,,,0.00,Wunderground v.1.15,2013-08-28 14:14:00,
2013-08-28 08:24:00,50.9,48.7,29.96,South,190,0.0,0.0,92,0.00,,,0.00,Wunderground v.1.15,2013-08-28 14:24:00,
2013-08-28 08:29:00,51.4,49.2,29.96,South,190,0.0,0.0,92,0.00,,,0.00,Wunderground v.1.15,2013-08-28 14:29:00,
2013-08-28 08:39:00,52.7,49.8,29.96,South,190,0.0,0.0,90,0.00,,,0.00,Wunderground v.1.15,2013-08-28 14:39:00,
2013-08-28 08:49:00,54.6,48.9,29.95,South,190,0.0,0.0,81,0.00,,,0.00,Wunderground v.1.15,2013-08-28 14:49:00,
2013-08-28 08:54:00,55.7,48.6,29.95,South,190,0.0,0.0,77,0.00,,,0.00,Wunderground v.1.15,2013-08-28 14:54:00,
2013-08-28 09:04:00,57.8,48.8,29.95,South,190,0.0,0.0,72,0.00,,,0.00,Wunderground v.1.15,2013-08-28 15:04:00,
2013-08-28 09:09:00,59.0,49.2,29.95,ESE,120,0.0,0.0,70,0.00,,,0.00,Wunderground v.1.15,2013-08-28 15:09:00,
2013-08-28 09:14:00,60.3,48.9,29.95,ESE,120,0.0,0.0,66,0.00,,,0.00,Wunderground v.1.15,2013-08-28 15:14:00,
2013-08-28 09:24:00,63.0,49.8,29.94,ESE,120,0.0,0.0,62,0.00,,,0.00,Wunderground v.1.15,2013-08-28 15:24:00,
2013-08-28 09:29:00,64.2,51.3,29.94,ESE,120,0.0,0.0,63,0.00,,,0.00,Wunderground v.1.15,2013-08-28 15:29:00,
2013-08-28 09:34:00,65.4,51.6,29.94,ESE,120,0.0,0.0,61,0.00,,,0.00,Wunderground v.1.15,2013-08-28 15:34:00,
2013-08-28 09:39:00,66.4,52.5,29.94,ESE,120,0.0,0.0,61,0.00,,,0.00,Wunderground v.1.15,2013-08-28 15:39:00,
2013-08-28 09:49:00,68.6,51.3,29.94,SSE,149,0.0,0.0,54,0.00,,,0.00,Wunderground v.1.15,2013-08-28 15:49:00,
2013-08-28 09:54:00,69.3,51.9,29.94,SSE,149,0.0,0.0,54,0.00,,,0.00,Wunderground v.1.15,2013-08-28 15:54:00,
2013-08-28 09:59:00,70.1,51.1,29.94,SSE,149,0.0,0.0,51,0.00,,,0.00,Wunderground v.1.15,2013-08-28 15:59:00,
2013-08-28 10:04:00,71.2,52.7,29.94,SSE,149,0.0,0.0,52,0.00,,,0.00,Wunderground v.1.15,2013-08-28 16:04:00,
2013-08-28 10:09:00,72.6,53.4,29.94,SSE,149,0.0,0.0,51,0.00,,,0.00,Wunderground v.1.15,2013-08-28 16:09:00,
2013-08-28 10:14:00,72.7,50.7,29.94,SSE,149,0.0,0.0,46,0.00,,,0.00,Wunderground v.1.15,2013-08-28 16:14:00,
2013-08-28 10:24:00,72.5,51.7,29.94,SSE,149,0.0,0.0,48,0.00,,,0.00,Wunderground v.1.15,2013-08-28 16:24:00,
2013-08-28 10:29:00,73.9,52.4,29.94,SSE,149,0.0,0.0,47,0.00,,,0.00,Wunderground v.1.15,2013-08-28 16:29:00,
2013-08-28 10:34:00,74.8,52.0,29.94,SSE,149,0.0,0.0,45,0.00,,,0.00,Wunderground v.1.15,2013-08-28 16:34:00,
2013-08-28 10:44:00,75.6,53.9,29.94,SSE,150,0.0,0.0,47,0.00,,,0.00,Wunderground v.1.15,2013-08-28 16:44:00,
2013-08-28 10:49:00,74.8,52.6,29.94,SSE,155,0.0,0.0,46,0.00,,,0.00,Wunderground v.1.15,2013-08-28 16:49:00,
2013-08-28 10:54:00,75.1,54.6,29.94,SSE,155,0.0,0.0,49,0.00,,,0.00,Wunderground v.1.15,2013-08-28 16:54:00,
2013-08-28 10:59:00,75.7,54.0,29.93,SSE,157,0.0,0.0,47,0.00,,,0.00,Wunderground v.1.15,2013-08-28 16:59:00,
2013-08-28 11:04:00,76.1,53.8,29.93,South,175,0.0,0.0,46,0.00,,,0.00,Wunderground v.1.15,2013-08-28 17:04:00,
2013-08-28 11:09:00,76.0,52.5,29.93,South,180,0.0,0.0,44,0.00,,,0.00,Wunderground v.1.15,2013-08-28 17:09:00,
2013-08-28 11:14:00,76.7,54.4,29.93,SSE,163,0.0,0.0,46,0.00,,,0.00,Wunderground v.1.15,2013-08-28 17:14:00,
2013-08-28 11:19:00,77.2,52.3,29.93,ESE,120,0.0,0.0,42,0.00,,,0.00,Wunderground v.1.15,2013-08-28 17:19:00,
2013-08-28 11:24:00,77.2,53.6,29.93,ESE,120,0.0,0.0,44,0.00,,,0.00,Wunderground v.1.15,2013-08-28 17:24:00,
2013-08-28 11:29:00,77.4,53.1,29.93,East,92,0.0,0.0,43,0.00,,,0.00,Wunderground v.1.15,2013-08-28 17:29:00,
2013-08-28 11:34:00,77.5,52.6,29.93,East,92,0.0,0.0,42,0.00,,,0.00,Wunderground v.1.15,2013-08-28 17:34:00,
2013-08-28 11:39:00,77.7,52.8,29.93,East,92,0.0,0.0,42,0.00,,,0.00,Wunderground v.1.15,2013-08-28 17:39:00,
2013-08-28 11:44:00,77.6,52.7,29.92,East,92,0.0,0.0,42,0.00,,,0.00,Wunderground v.1.15,2013-08-28 17:44:00,
2013-08-28 11:54:00,78.5,54.1,29.92,East,92,0.0,0.0,43,0.00,,,0.00,Wunderground v.1.15,2013-08-28 17:54:00,
2013-08-28 11:59:00,79.0,53.9,29.92,East,94,0.0,0.0,42,0.00,,,0.00,Wunderground v.1.15,2013-08-28 17:59:00,
2013-08-28 12:04:00,79.1,52.0,29.91,East,94,0.0,0.0,39,0.00,,,0.00,Wunderground v.1.15,2013-08-28 18:04:00,
2013-08-28 12:14:00,79.5,53.1,29.91,SSW,192,0.0,0.0,40,0.00,,,0.00,Wunderground v.1.15,2013-08-28 18:14:00,
2013-08-28 12:19:00,80.2,51.6,29.91,SSE,154,0.0,0.0,37,0.00,,,0.00,Wunderground v.1.15,2013-08-28 18:19:00,
2013-08-28 12:24:00,80.4,53.2,29.90,ESE,117,0.0,0.0,39,0.00,,,0.00,Wunderground v.1.15,2013-08-28 18:24:00,
2013-08-28 12:29:00,80.8,52.8,29.89,ESE,116,0.0,0.0,38,0.00,,,0.00,Wunderground v.1.15,2013-08-28 18:29:00,
2013-08-28 12:34:00,80.9,51.4,29.89,South,174,0.0,0.0,36,0.00,,,0.00,Wunderground v.1.15,2013-08-28 18:34:00,
2013-08-28 12:39:00,80.7,52.0,29.89,ESE,121,0.0,0.0,37,0.00,,,0.00,Wunderground v.1.15,2013-08-28 18:39:00,
2013-08-28 12:44:00,80.5,52.6,29.89,East,83,0.0,0.0,38,0.00,,,0.00,Wunderground v.1.15,2013-08-28 18:44:00,
2013-08-28 12:54:00,80.6,51.9,29.88,ESE,108,0.0,0.0,37,0.00,,,0.00,Wunderground v.1.15,2013-08-28 18:54:00,
2013-08-28 12:59:00,80.7,53.4,29.88,SE,134,0.0,0.0,39,0.00,,,0.00,Wunderground v.1.15,2013-08-28 18:59:00,
2013-08-28 13:09:00,80.9,52.2,29.88,SSW,193,0.0,0.0,37,0.00,,,0.00,Wunderground v.1.15,2013-08-28 19:09:00,
2013-08-28 13:14:00,81.3,52.5,29.88,ESE,111,0.0,0.0,37,0.00,,,0.00,Wunderground v.1.15,2013-08-28 19:14:00,
2013-08-28 13:24:00,82.3,52.7,29.88,ESE,116,0.0,0.0,36,0.00,,,0.00,Wunderground v.1.15,2013-08-28 19:24:00,
2013-08-28 13:34:00,82.8,50.8,29.88,South,189,0.0,0.0,33,0.00,,,0.00,Wunderground v.1.15,2013-08-28 19:34:00,
2013-08-28 13:39:00,82.8,53.1,29.87,ESE,121,0.0,0.0,36,0.00,,,0.00,Wunderground v.1.15,2013-08-28 19:39:00,
2013-08-28 13:44:00,83.0,50.1,29.87,ESE,121,0.0,0.0,32,0.00,,,0.00,Wunderground v.1.15,2013-08-28 19:44:00,
2013-08-28 13:49:00,83.1,52.6,29.88,SE,130,0.0,0.0,35,0.00,,,0.00,Wunderground v.1.15,2013-08-28 19:49:00,
2013-08-28 13:59:00,82.9,49.2,29.87,South,189,0.0,0.0,31,0.00,,,0.00,Wunderground v.1.15,2013-08-28 19:59:00,
2013-08-28 14:04:00,82.8,53.9,29.87,SSE,151,0.0,0.0,37,0.00,,,0.00,Wunderground v.1.15,2013-08-28 20:04:00,
2013-08-28 14:09:00,83.1,52.6,29.87,SE,126,0.0,0.0,35,0.00,,,0.00,Wunderground v.1.15,2013-08-28 20:09:00,
2013-08-28 14:15:00,83.4,52.1,29.87,South,186,0.0,0.0,34,0.00,,,0.00,Wunderground v.1.15,2013-08-28 20:15:00,
2013-08-28 14:24:00,82.2,51.8,29.86,East,84,0.0,0.0,35,0.00,,,0.00,Wunderground v.1.15,2013-08-28 20:24:00,
2013-08-28 14:29:00,82.3,49.5,29.86,SE,124,0.0,0.0,32,0.00,,,0.00,Wunderground v.1.15,2013-08-28 20:29:00,
2013-08-28 14:39:00,82.7,50.7,29.85,ESE,122,0.0,0.0,33,0.00,,,0.00,Wunderground v.1.15,2013-08-28 20:39:00,
2013-08-28 14:44:00,82.5,50.5,29.85,South,179,0.0,0.0,33,0.00,,,0.00,Wunderground v.1.15,2013-08-28 20:44:00,
2013-08-28 14:49:00,82.6,52.9,29.85,SE,126,0.0,0.0,36,0.00,,,0.00,Wunderground v.1.15,2013-08-28 20:49:00,
2013-08-28 14:59:00,82.7,48.1,29.84,WSW,248,0.0,0.0,30,0.00,,,0.00,Wunderground v.1.15,2013-08-28 20:59:00,
2013-08-28 15:04:00,82.9,52.4,29.84,South,173,0.0,0.0,35,0.00,,,0.00,Wunderground v.1.15,2013-08-28 21:04:00,
2013-08-28 15:15:00,83.6,50.6,29.84,SSW,193,0.0,0.0,32,0.00,,,0.00,Wunderground v.1.15,2013-08-28 21:15:00,
2013-08-28 15:24:00,82.0,48.4,29.84,East,81,0.0,0.0,31,0.00,,,0.00,Wunderground v.1.15,2013-08-28 21:24:00,
2013-08-28 15:29:00,81.6,48.9,29.83,SE,127,0.0,0.0,32,0.00,,,0.00,Wunderground v.1.15,2013-08-28 21:29:00,
2013-08-28 15:34:00,81.4,49.5,29.83,SSE,161,0.0,0.0,33,0.00,,,0.00,Wunderground v.1.15,2013-08-28 21:34:00,
2013-08-28 15:39:00,81.5,47.1,29.84,East,91,0.0,0.0,30,0.00,,,0.00,Wunderground v.1.15,2013-08-28 21:39:00,
2013-08-28 15:49:00,81.3,49.4,29.83,SSE,161,0.0,0.0,33,0.00,,,0.00,Wunderground v.1.15,2013-08-28 21:49:00,
2013-08-28 15:59:00,81.3,46.9,29.83,South,173,0.0,0.0,30,0.00,,,0.00,Wunderground v.1.15,2013-08-28 21:59:00,
2013-08-28 16:04:00,81.4,48.7,29.84,South,177,0.0,0.0,32,0.00,,,0.00,Wunderground v.1.15,2013-08-28 22:04:00,
2013-08-28 16:09:00,81.5,49.6,29.84,South,169,0.0,0.0,33,0.00,,,0.00,Wunderground v.1.15,2013-08-28 22:09:00,
2013-08-28 16:15:00,81.4,47.9,29.84,South,179,0.0,0.0,31,0.00,,,0.00,Wunderground v.1.15,2013-08-28 22:15:00,
2013-08-28 16:24:00,80.6,46.3,29.84,SE,136,0.0,0.0,30,0.00,,,0.00,Wunderground v.1.15,2013-08-28 22:24:00,
2013-08-28 16:34:00,80.1,46.7,29.84,SSW,194,0.0,0.0,31,0.00,,,0.00,Wunderground v.1.15,2013-08-28 22:34:00,
2013-08-28 16:44:00,80.1,49.2,29.84,South,176,0.0,0.0,34,0.00,,,0.00,Wunderground v.1.15,2013-08-28 22:44:00,
2013-08-28 16:49:00,79.8,48.1,29.83,ENE,68,0.0,0.0,33,0.00,,,0.00,Wunderground v.1.15,2013-08-28 22:49:00,
2013-08-28 16:54:00,79.7,49.6,29.83,South,176,0.0,0.0,35,0.00,,,0.00,Wunderground v.1.15,2013-08-28 22:54:00,
2013-08-28 17:04:00,78.9,48.1,29.83,East,94,0.0,0.0,34,0.00,,,0.00,Wunderground v.1.15,2013-08-28 23:04:00,
2013-08-28 17:09:00,78.7,49.5,29.83,East,94,0.0,0.0,36,0.00,,,0.00,Wunderground v.1.15,2013-08-28 23:09:00,
2013-08-28 17:14:00,78.4,46.9,29.83,East,94,0.0,0.0,33,0.00,,,0.00,Wunderground v.1.15,2013-08-28 23:14:00,
2013-08-28 17:24:00,78.0,46.6,29.84,ESE,104,0.0,0.0,33,0.00,,,0.00,Wunderground v.1.15,2013-08-28 23:24:00,
2013-08-28 17:34:00,77.5,46.9,29.84,SSW,207,0.0,0.0,34,0.00,,,0.00,Wunderground v.1.15,2013-08-28 23:34:00,
2013-08-28 17:39:00,77.3,46.7,29.84,SSW,207,0.0,0.0,34,0.00,,,0.00,Wunderground v.1.15,2013-08-28 23:39:00,
2013-08-28 17:44:00,77.1,45.8,29.84,SSE,167,0.0,0.0,33,0.00,,,0.00,Wunderground v.1.15,2013-08-28 23:44:00,
2013-08-28 17:49:00,77.1,45.8,29.84,SSE,167,0.0,0.0,33,0.00,,,0.00,Wunderground v.1.15,2013-08-28 23:49:00,
2013-08-28 17:59:00,76.9,47.2,29.84,South,169,0.0,0.0,35,0.00,,,0.00,Wunderground v.1.15,2013-08-28 23:59:00,
2013-08-28 18:04:00,76.8,48.6,29.85,South,169,0.0,0.0,37,0.00,,,0.00,Wunderground v.1.15,2013-08-29 00:04:00,
2013-08-28 18:09:00,76.6,47.6,29.85,SSE,161,0.0,0.0,36,0.00,,,0.00,Wunderground v.1.15,2013-08-29 00:09:00,
2013-08-28 18:14:00,76.4,47.5,29.85,SSE,161,0.0,0.0,36,0.00,,,0.00,Wunderground v.1.15,2013-08-29 00:14:00,
2013-08-28 18:24:00,75.8,46.9,29.85,East,86,0.0,0.0,36,0.00,,,0.00,Wunderground v.1.15,2013-08-29 00:24:00,
2013-08-28 18:29:00,75.3,47.2,29.85,East,86,0.0,0.0,37,0.00,,,0.00,Wunderground v.1.15,2013-08-29 00:29:00,
2013-08-28 18:34:00,74.9,49.6,29.86,East,86,0.0,0.0,41,0.00,,,0.00,Wunderground v.1.15,2013-08-29 00:34:00,
2013-08-28 18:39:00,74.2,50.3,29.86,East,86,0.0,0.0,43,0.00,,,0.00,Wunderground v.1.15,2013-08-29 00:39:00,
2013-08-28 18:44:00,73.5,49.0,29.86,East,86,0.0,0.0,42,0.00,,,0.00,Wunderground v.1.15,2013-08-29 00:44:00,
2013-08-28 18:49:00,73.1,48.0,29.86,East,86,0.0,0.0,41,0.00,,,0.00,Wunderground v.1.15,2013-08-29 00:49:00,
2013-08-28 18:54:00,72.8,50.2,29.86,East,86,0.0,0.0,45,0.00,,,0.00,Wunderground v.1.15,2013-08-29 00:54:00,
2013-08-28 19:04:00,72.3,52.1,29.85,East,86,0.0,0.0,49,0.00,,,0.00,Wunderground v.1.15,2013-08-29 01:04:00,
2013-08-28 19:09:00,72.0,50.7,29.85,East,86,0.0,0.0,47,0.00,,,0.00,Wunderground v.1.15,2013-08-29 01:09:00,
2013-08-28 19:14:00,71.5,51.3,29.86,East,86,0.0,0.0,49,0.00,,,0.00,Wunderground v.1.15,2013-08-29 01:14:00,
2013-08-28 19:24:00,70.8,50.7,29.86,East,86,0.0,0.0,49,0.00,,,0.00,Wunderground v.1.15,2013-08-29 01:24:00,
2013-08-28 19:34:00,69.4,53.5,29.87,East,86,0.0,0.0,57,0.00,,,0.00,Wunderground v.1.15,2013-08-29 01:34:00,
2013-08-28 19:39:00,68.6,52.8,29.88,East,86,0.0,0.0,57,0.00,,,0.00,Wunderground v.1.15,2013-08-29 01:39:00,
2013-08-28 19:49:00,67.6,52.3,29.88,East,86,0.0,0.0,58,0.00,,,0.00,Wunderground v.1.15,2013-08-29 01:49:00,
2013-08-28 19:54:00,67.1,50.9,29.88,East,86,0.0,0.0,56,0.00,,,0.00,Wunderground v.1.15,2013-08-29 01:54:00,
2013-08-28 20:04:00,66.4,50.2,29.88,East,86,0.0,0.0,56,0.00,,,0.00,Wunderground v.1.15,2013-08-29 02:04:00,
2013-08-28 20:09:00,66.0,49.8,29.88,East,86,0.0,0.0,56,0.00,,,0.00,Wunderground v.1.15,2013-08-29 02:09:00,
2013-08-28 20:14:00,65.8,49.7,29.88,East,86,0.0,0.0,56,0.00,,,0.00,Wunderground v.1.15,2013-08-29 02:14:00,
2013-08-28 20:24:00,65.1,50.9,29.88,East,86,0.0,0.0,60,0.00,,,0.00,Wunderground v.1.15,2013-08-29 02:24:00,
2013-08-28 20:34:00,64.1,51.2,29.88,South,179,0.0,0.0,63,0.00,,,0.00,Wunderground v.1.15,2013-08-29 02:34:00,
2013-08-28 20:39:00,63.9,51.1,29.88,South,179,0.0,0.0,63,0.00,,,0.00,Wunderground v.1.15,2013-08-29 02:39:00,
2013-08-28 20:49:00,63.1,49.9,29.90,South,179,0.0,0.0,62,0.00,,,0.00,Wunderground v.1.15,2013-08-29 02:49:00,
2013-08-28 20:54:00,63.0,49.3,29.90,South,179,0.0,0.0,61,0.00,,,0.00,Wunderground v.1.15,2013-08-29 02:54:00,
2013-08-28 21:04:00,63.5,50.2,29.90,South,179,0.0,0.0,62,0.00,,,0.00,Wunderground v.1.15,2013-08-29 03:04:00,
2013-08-28 21:14:00,62.9,50.5,29.91,South,179,0.0,0.0,64,0.00,,,0.00,Wunderground v.1.15,2013-08-29 03:14:00,
2013-08-28 21:24:00,62.3,50.4,29.91,South,179,0.0,0.0,65,0.00,,,0.00,Wunderground v.1.15,2013-08-29 03:24:00,
2013-08-28 21:29:00,62.1,50.2,29.91,South,179,0.0,0.0,65,0.00,,,0.00,Wunderground v.1.15,2013-08-29 03:29:00,
2013-08-28 21:34:00,61.8,49.9,29.91,South,179,0.0,0.0,65,0.00,,,0.00,Wunderground v.1.15,2013-08-29 03:34:00,
2013-08-28 21:44:00,61.4,49.5,29.91,South,179,0.0,0.0,65,0.00,,,0.00,Wunderground v.1.15,2013-08-29 03:44:00,
2013-08-28 21:49:00,61.2,49.7,29.91,South,179,0.0,0.0,66,0.00,,,0.00,Wunderground v.1.15,2013-08-29 03:49:00,
2013-08-28 21:54:00,60.9,50.3,29.91,South,179,0.0,0.0,68,0.00,,,0.00,Wunderground v.1.15,2013-08-29 03:54:00,
2013-08-28 21:59:00,60.7,50.9,29.91,South,179,0.0,0.0,70,0.00,,,0.00,Wunderground v.1.15,2013-08-29 03:59:00,
2013-08-28 22:04:00,60.4,50.2,29.91,South,179,0.0,0.0,69,0.00,,,0.00,Wunderground v.1.15,2013-08-29 04:04:00,
2013-08-28 22:09:00,59.9,49.7,29.91,South,179,0.0,0.0,69,0.00,,,0.00,Wunderground v.1.15,2013-08-29 04:09:00,
2013-08-28 22:15:00,59.6,50.6,29.91,South,179,0.0,0.0,72,0.00,,,0.00,Wunderground v.1.15,2013-08-29 04:15:00,
2013-08-28 22:24:00,59.0,49.2,29.92,South,179,0.0,0.0,70,0.00,,,0.00,Wunderground v.1.15,2013-08-29 04:24:00,
2013-08-28 22:29:00,58.7,48.6,29.92,South,179,0.0,0.0,69,0.00,,,0.00,Wunderground v.1.15,2013-08-29 04:29:00,
2013-08-28 22:34:00,58.5,49.1,29.93,South,179,0.0,0.0,71,0.00,,,0.00,Wunderground v.1.15,2013-08-29 04:34:00,
2013-08-28 22:44:00,58.1,48.7,29.93,South,179,0.0,0.0,71,0.00,,,0.00,Wunderground v.1.15,2013-08-29 04:44:00,
2013-08-28 22:49:00,57.8,48.8,29.93,South,179,0.0,0.0,72,0.00,,,0.00,Wunderground v.1.15,2013-08-29 04:49:00,
2013-08-28 22:54:00,57.5,48.5,29.94,South,179,0.0,0.0,72,0.00,,,0.00,Wunderground v.1.15,2013-08-29 04:54:00,
2013-08-28 22:59:00,57.2,49.0,29.93,South,179,0.0,0.0,74,0.00,,,0.00,Wunderground v.1.15,2013-08-29 04:59:00,
2013-08-28 23:04:00,57.1,48.9,29.94,South,179,0.0,0.0,74,0.00,,,0.00,Wunderground v.1.15,2013-08-29 05:04:00,
2013-08-28 23:09:00,56.9,48.7,29.94,South,179,0.0,0.0,74,0.00,,,0.00,Wunderground v.1.15,2013-08-29 05:09:00,
2013-08-28 23:15:00,56.6,48.4,29.94,South,179,0.0,0.0,74,0.00,,,0.00,Wunderground v.1.15,2013-08-29 05:15:00,
2013-08-28 23:24:00,56.2,48.0,29.95,South,179,0.0,0.0,74,0.00,,,0.00,Wunderground v.1.15,2013-08-29 05:24:00,
2013-08-28 23:29:00,56.1,47.6,29.95,South,179,0.0,0.0,73,0.00,,,0.00,Wunderground v.1.15,2013-08-29 05:29:00,
2013-08-28 23:34:00,56.1,48.6,29.95,South,179,0.0,0.0,76,0.00,,,0.00,Wunderground v.1.15,2013-08-29 05:34:00,
2013-08-28 23:39:00,55.9,48.4,29.95,South,179,0.0,0.0,76,0.00,,,0.00,Wunderground v.1.15,2013-08-29 05:39:00,
2013-08-28 23:49:00,55.6,47.8,29.95,South,179,0.0,0.0,75,0.00,,,0.00,Wunderground v.1.15,2013-08-29 05:49:00,
2013-08-28 23:59:00,55.3,48.2,29.96,South,179,0.0,0.0,77,0.00,,,0.00,Wunderground v.1.15,2013-08-29 05:59:00,